Year,Month,Day,Hour,Minute,Value (Times are PST for windspeed in km/hr)
2008,06,11,00,00,4.70
2008,06,11,00,01,1.90
2008,06,11,00,02,3.40
2008,06,11,00,03,1.20
2008,06,11,00,04,0.00
2008,06,11,00,05,0.00
2008,06,11,00,06,3.10
2008,06,11,00,07,1.90
2008,06,11,00,08,0.70
2008,06,11,00,09,1.20
2008,06,11,00,10,1.30
2008,06,11,00,11,3.10
2008,06,11,00,12,3.20
2008,06,11,00,13,3.80
2008,06,11,00,14,4.20
2008,06,11,00,15,3.20
2008,06,11,00,16,2.90
2008,06,11,00,17,3.40
2008,06,11,00,18,3.80
2008,06,11,00,19,5.00
2008,06,11,00,20,4.90
2008,06,11,00,21,5.60
2008,06,11,00,22,5.70
2008,06,11,00,23,5.50
2008,06,11,00,24,5.20
2008,06,11,00,25,5.80
2008,06,11,00,26,5.50
2008,06,11,00,27,5.50
2008,06,11,00,28,5.00
2008,06,11,00,29,7.90
2008,06,11,00,30,5.60
2008,06,11,00,31,7.90
2008,06,11,00,32,4.70
2008,06,11,00,33,3.70
2008,06,11,00,34,4.80
2008,06,11,00,35,4.90
2008,06,11,00,36,4.70
2008,06,11,00,37,6.00
2008,06,11,00,38,5.20
2008,06,11,00,39,3.70
2008,06,11,00,40,5.10
2008,06,11,00,41,6.90
2008,06,11,00,42,4.40
2008,06,11,00,43,4.40
2008,06,11,00,44,3.70
2008,06,11,00,45,4.60
2008,06,11,00,46,4.40
2008,06,11,00,47,1.50
2008,06,11,00,48,4.70
2008,06,11,00,49,2.80
2008,06,11,00,50,2.50
2008,06,11,00,51,3.50
2008,06,11,00,52,1.10
2008,06,11,00,53,2.80
2008,06,11,00,54,4.50
2008,06,11,00,55,4.60
2008,06,11,00,56,4.20
2008,06,11,00,57,4.80
2008,06,11,00,58,3.10
2008,06,11,00,59,3.80
2008,06,11,01,00,2.70
2008,06,11,01,01,2.40
2008,06,11,01,02,5.90
2008,06,11,01,03,3.20
2008,06,11,01,04,3.20
2008,06,11,01,05,3.40
2008,06,11,01,06,2.30
2008,06,11,01,07,4.90
2008,06,11,01,08,2.50
2008,06,11,01,09,0.90
2008,06,11,01,10,1.90
2008,06,11,01,11,6.30
2008,06,11,01,12,3.60
2008,06,11,01,13,1.20
2008,06,11,01,14,1.30
2008,06,11,01,15,1.00
2008,06,11,01,16,2.60
2008,06,11,01,17,3.90
2008,06,11,01,18,4.50
2008,06,11,01,19,5.60
2008,06,11,01,20,6.60
2008,06,11,01,21,3.10
2008,06,11,01,22,3.20
2008,06,11,01,23,4.30
2008,06,11,01,24,4.70
2008,06,11,01,25,2.60
2008,06,11,01,26,2.10
2008,06,11,01,27,3.30
2008,06,11,01,28,3.10
2008,06,11,01,29,3.80
2008,06,11,01,30,2.10
2008,06,11,01,31,3.70
2008,06,11,01,32,2.20
2008,06,11,01,33,3.40
2008,06,11,01,34,2.00
2008,06,11,01,35,2.90
2008,06,11,01,36,6.10
2008,06,11,01,37,4.70
2008,06,11,01,38,3.40
2008,06,11,01,39,1.60
2008,06,11,01,40,1.90
2008,06,11,01,41,0.20
2008,06,11,01,42,2.70
2008,06,11,01,43,2.50
2008,06,11,01,44,3.20
2008,06,11,01,45,3.50
2008,06,11,01,46,0.80
2008,06,11,01,47,6.70
2008,06,11,01,48,3.70
2008,06,11,01,49,1.80
2008,06,11,01,50,4.40
2008,06,11,01,51,6.00
2008,06,11,01,52,3.00
2008,06,11,01,53,3.10
2008,06,11,01,54,2.40
2008,06,11,01,55,3.50
2008,06,11,01,56,4.90
2008,06,11,01,57,2.40
2008,06,11,01,58,3.10
2008,06,11,01,59,4.30
2008,06,11,02,00,6.80
2008,06,11,02,01,3.50
2008,06,11,02,02,7.00
2008,06,11,02,03,4.50
2008,06,11,02,04,4.30
2008,06,11,02,05,5.30
2008,06,11,02,06,5.50
2008,06,11,02,07,2.90
2008,06,11,02,08,4.70
2008,06,11,02,09,1.80
2008,06,11,02,10,6.00
2008,06,11,02,11,3.60
2008,06,11,02,12,6.00
2008,06,11,02,13,6.30
2008,06,11,02,14,5.40
2008,06,11,02,15,4.60
2008,06,11,02,16,8.00
2008,06,11,02,17,6.20
2008,06,11,02,18,3.50
2008,06,11,02,19,4.20
2008,06,11,02,20,8.80
2008,06,11,02,21,5.90
2008,06,11,02,22,5.10
2008,06,11,02,23,5.70
2008,06,11,02,24,7.50
2008,06,11,02,25,3.00
2008,06,11,02,26,6.70
2008,06,11,02,27,7.90
2008,06,11,02,28,6.10
2008,06,11,02,29,6.90
2008,06,11,02,30,4.70
2008,06,11,02,31,6.90
2008,06,11,02,32,6.40
2008,06,11,02,33,7.60
2008,06,11,02,34,7.80
2008,06,11,02,35,5.80
2008,06,11,02,36,6.00
2008,06,11,02,37,7.20
2008,06,11,02,38,2.20
2008,06,11,02,39,7.40
2008,06,11,02,40,2.90
2008,06,11,02,41,5.20
2008,06,11,02,42,3.50
2008,06,11,02,43,2.70
2008,06,11,02,44,4.80
2008,06,11,02,45,7.70
2008,06,11,02,46,5.20
2008,06,11,02,47,5.40
2008,06,11,02,48,5.20
2008,06,11,02,49,5.10
2008,06,11,02,50,1.30
2008,06,11,02,51,3.30
2008,06,11,02,52,5.00
2008,06,11,02,53,3.60
2008,06,11,02,54,1.80
2008,06,11,02,55,2.50
2008,06,11,02,56,1.70
2008,06,11,02,57,1.90
2008,06,11,02,58,3.90
2008,06,11,02,59,4.40
2008,06,11,03,00,5.70
2008,06,11,03,01,4.60
2008,06,11,03,02,4.10
2008,06,11,03,03,2.00
2008,06,11,03,04,5.10
2008,06,11,03,05,5.70
2008,06,11,03,06,2.00
2008,06,11,03,07,4.60
2008,06,11,03,08,6.20
2008,06,11,03,09,4.30
2008,06,11,03,10,3.50
2008,06,11,03,11,3.50
2008,06,11,03,12,0.80
2008,06,11,03,13,2.10
2008,06,11,03,14,5.10
2008,06,11,03,15,4.70
2008,06,11,03,16,3.50
2008,06,11,03,17,3.00
2008,06,11,03,18,4.00
2008,06,11,03,19,3.60
2008,06,11,03,20,2.90
2008,06,11,03,21,4.60
2008,06,11,03,22,0.90
2008,06,11,03,23,1.00
2008,06,11,03,24,0.90
2008,06,11,03,25,1.80
2008,06,11,03,26,4.70
2008,06,11,03,27,4.80
2008,06,11,03,28,2.90
2008,06,11,03,29,0.90
2008,06,11,03,30,2.60
2008,06,11,03,31,3.90
2008,06,11,03,32,3.80
2008,06,11,03,33,1.50
2008,06,11,03,34,3.00
2008,06,11,03,35,1.10
2008,06,11,03,36,0.60
2008,06,11,03,37,0.30
2008,06,11,03,38,1.30
2008,06,11,03,39,1.50
2008,06,11,03,40,1.80
2008,06,11,03,41,1.60
2008,06,11,03,42,1.10
2008,06,11,03,43,1.70
2008,06,11,03,44,2.20
2008,06,11,03,45,1.40
2008,06,11,03,46,0.40
2008,06,11,03,47,2.30
2008,06,11,03,48,1.10
2008,06,11,03,49,0.30
2008,06,11,03,50,0.00
2008,06,11,03,51,0.10
2008,06,11,03,52,0.00
2008,06,11,03,53,0.00
2008,06,11,03,54,0.20
2008,06,11,03,55,0.70
2008,06,11,03,56,1.50
2008,06,11,03,57,0.00
2008,06,11,03,58,0.00
2008,06,11,03,59,0.50
2008,06,11,04,00,1.10
2008,06,11,04,01,1.00
2008,06,11,04,02,0.00
2008,06,11,04,03,0.10
2008,06,11,04,04,0.90
2008,06,11,04,05,0.00
2008,06,11,04,06,0.10
2008,06,11,04,07,0.10
2008,06,11,04,08,0.60
2008,06,11,04,09,0.00
2008,06,11,04,10,0.10
2008,06,11,04,11,1.00
2008,06,11,04,12,0.30
2008,06,11,04,13,1.80
2008,06,11,04,14,1.40
2008,06,11,04,15,0.10
2008,06,11,04,16,0.40
2008,06,11,04,17,0.20
2008,06,11,04,18,0.60
2008,06,11,04,19,0.80
2008,06,11,04,20,3.80
2008,06,11,04,21,2.70
2008,06,11,04,22,1.00
2008,06,11,04,23,1.10
2008,06,11,04,24,0.60
2008,06,11,04,25,0.30
2008,06,11,04,26,0.30
2008,06,11,04,27,0.30
2008,06,11,04,28,0.40
2008,06,11,04,29,1.60
2008,06,11,04,30,0.70
2008,06,11,04,31,0.70
2008,06,11,04,32,1.50
2008,06,11,04,33,3.80
2008,06,11,04,34,3.50
2008,06,11,04,35,0.00
2008,06,11,04,36,1.30
2008,06,11,04,37,1.80
2008,06,11,04,38,0.90
2008,06,11,04,39,0.10
2008,06,11,04,40,2.60
2008,06,11,04,41,2.30
2008,06,11,04,42,1.70
2008,06,11,04,43,1.00
2008,06,11,04,44,0.40
2008,06,11,04,45,1.60
2008,06,11,04,46,0.00
2008,06,11,04,47,1.10
2008,06,11,04,48,0.00
2008,06,11,04,49,3.70
2008,06,11,04,50,1.10
2008,06,11,04,51,0.50
2008,06,11,04,52,0.20
2008,06,11,04,53,0.50
2008,06,11,04,54,0.80
2008,06,11,04,55,0.80
2008,06,11,04,56,0.20
2008,06,11,04,57,0.20
2008,06,11,04,58,0.40
2008,06,11,04,59,1.80
2008,06,11,05,00,0.60
2008,06,11,05,01,1.70
2008,06,11,05,02,0.00
2008,06,11,05,03,0.00
2008,06,11,05,04,0.00
2008,06,11,05,05,0.50
2008,06,11,05,06,0.10
2008,06,11,05,07,0.00
2008,06,11,05,08,1.90
2008,06,11,05,09,1.20
2008,06,11,05,10,0.10
2008,06,11,05,11,0.00
2008,06,11,05,12,0.00
2008,06,11,05,13,0.10
2008,06,11,05,14,0.10
2008,06,11,05,15,2.50
2008,06,11,05,16,0.10
2008,06,11,05,17,0.20
2008,06,11,05,18,0.00
2008,06,11,05,19,0.10
2008,06,11,05,20,0.00
2008,06,11,05,21,0.30
2008,06,11,05,22,0.00
2008,06,11,05,23,0.40
2008,06,11,05,24,1.80
2008,06,11,05,25,0.70
2008,06,11,05,26,0.30
2008,06,11,05,27,0.00
2008,06,11,05,28,1.30
2008,06,11,05,29,1.30
2008,06,11,05,30,0.20
2008,06,11,05,31,0.70
2008,06,11,05,32,0.80
2008,06,11,05,33,0.50
2008,06,11,05,34,0.10
2008,06,11,05,35,0.00
2008,06,11,05,36,0.70
2008,06,11,05,37,0.90
2008,06,11,05,38,0.90
2008,06,11,05,39,0.50
2008,06,11,05,40,1.00
2008,06,11,05,41,1.70
2008,06,11,05,42,3.60
2008,06,11,05,43,3.70
2008,06,11,05,44,2.70
2008,06,11,05,45,2.40
2008,06,11,05,46,3.90
2008,06,11,05,47,4.60
2008,06,11,05,48,2.40
2008,06,11,05,49,6.50
2008,06,11,05,50,1.80
2008,06,11,05,51,4.30
2008,06,11,05,52,4.30
2008,06,11,05,53,3.20
2008,06,11,05,54,5.50
2008,06,11,05,55,6.30
2008,06,11,05,56,6.00
2008,06,11,05,57,4.60
2008,06,11,05,58,5.30
2008,06,11,05,59,2.80
2008,06,11,06,00,2.90
2008,06,11,06,01,3.10
2008,06,11,06,02,4.00
2008,06,11,06,03,3.80
2008,06,11,06,04,1.30
2008,06,11,06,05,3.90
2008,06,11,06,06,2.00
2008,06,11,06,07,2.50
2008,06,11,06,08,0.50
2008,06,11,06,09,2.40
2008,06,11,06,10,1.00
2008,06,11,06,11,3.80
2008,06,11,06,12,4.40
2008,06,11,06,13,4.40
2008,06,11,06,14,5.50
2008,06,11,06,15,3.00
2008,06,11,06,16,3.70
2008,06,11,06,17,1.90
2008,06,11,06,18,2.60
2008,06,11,06,19,2.40
2008,06,11,06,20,2.30
2008,06,11,06,21,0.90
2008,06,11,06,22,1.40
2008,06,11,06,23,0.20
2008,06,11,06,24,2.50
2008,06,11,06,25,0.40
2008,06,11,06,26,1.10
2008,06,11,06,27,0.40
2008,06,11,06,28,1.00
2008,06,11,06,29,0.20
2008,06,11,06,30,0.60
2008,06,11,06,31,1.00
2008,06,11,06,32,0.00
2008,06,11,06,33,0.20
2008,06,11,06,34,0.40
2008,06,11,06,35,1.30
2008,06,11,06,36,0.80
2008,06,11,06,37,1.30
2008,06,11,06,38,0.10
2008,06,11,06,39,0.00
2008,06,11,06,40,0.00
2008,06,11,06,41,0.10
2008,06,11,06,42,0.20
2008,06,11,06,43,0.00
2008,06,11,06,44,0.10
2008,06,11,06,45,0.00
2008,06,11,06,46,0.20
2008,06,11,06,47,0.40
2008,06,11,06,48,0.10
2008,06,11,06,49,0.20
2008,06,11,06,50,0.00
2008,06,11,06,51,0.50
2008,06,11,06,52,1.80
2008,06,11,06,53,1.00
2008,06,11,06,54,0.20
2008,06,11,06,55,0.50
2008,06,11,06,56,0.60
2008,06,11,06,57,0.70
2008,06,11,06,58,0.00
2008,06,11,06,59,1.40
2008,06,11,07,00,0.80
2008,06,11,07,01,1.20
2008,06,11,07,02,0.70
2008,06,11,07,03,0.20
2008,06,11,07,04,0.90
2008,06,11,07,05,0.00
2008,06,11,07,06,0.40
2008,06,11,07,07,1.00
2008,06,11,07,08,0.50
2008,06,11,07,09,0.90
2008,06,11,07,10,1.70
2008,06,11,07,11,1.70
2008,06,11,07,12,3.70
2008,06,11,07,13,0.70
2008,06,11,07,14,0.90
2008,06,11,07,15,0.10
2008,06,11,07,16,0.80
2008,06,11,07,17,0.10
2008,06,11,07,18,0.90
2008,06,11,07,19,0.00
2008,06,11,07,20,0.10
2008,06,11,07,21,0.10
2008,06,11,07,22,0.20
2008,06,11,07,23,0.20
2008,06,11,07,24,0.00
2008,06,11,07,25,0.60
2008,06,11,07,26,0.40
2008,06,11,07,27,0.00
2008,06,11,07,28,0.40
2008,06,11,07,29,0.50
2008,06,11,07,30,1.50
2008,06,11,07,31,0.20
2008,06,11,07,32,2.60
2008,06,11,07,33,3.70
2008,06,11,07,34,1.80
2008,06,11,07,35,4.40
2008,06,11,07,36,0.40
2008,06,11,07,37,4.60
2008,06,11,07,38,1.70
2008,06,11,07,39,1.30
2008,06,11,07,40,3.50
2008,06,11,07,41,4.20
2008,06,11,07,42,1.90
2008,06,11,07,43,3.90
2008,06,11,07,44,2.70
2008,06,11,07,45,1.30
2008,06,11,07,46,1.10
2008,06,11,07,47,1.80
2008,06,11,07,48,1.80
2008,06,11,07,49,2.40
2008,06,11,07,50,4.10
2008,06,11,07,51,0.90
2008,06,11,07,52,2.00
2008,06,11,07,53,4.00
2008,06,11,07,54,3.20
2008,06,11,07,55,0.60
2008,06,11,07,56,2.30
2008,06,11,07,57,4.40
2008,06,11,07,58,2.00
2008,06,11,07,59,1.20
2008,06,11,08,00,2.20
2008,06,11,08,01,4.90
2008,06,11,08,02,3.40
2008,06,11,08,03,2.40
2008,06,11,08,04,3.10
2008,06,11,08,05,2.80
2008,06,11,08,06,4.20
2008,06,11,08,07,4.70
2008,06,11,08,08,3.40
2008,06,11,08,09,4.40
2008,06,11,08,10,0.60
2008,06,11,08,11,3.50
2008,06,11,08,12,1.60
2008,06,11,08,13,0.10
2008,06,11,08,14,0.10
2008,06,11,08,15,3.90
2008,06,11,08,16,2.80
2008,06,11,08,17,2.60
2008,06,11,08,18,0.10
2008,06,11,08,19,3.50
2008,06,11,08,20,1.70
2008,06,11,08,21,3.20
2008,06,11,08,22,1.50
2008,06,11,08,23,6.50
2008,06,11,08,24,2.60
2008,06,11,08,25,3.60
2008,06,11,08,26,1.20
2008,06,11,08,27,4.50
2008,06,11,08,28,5.90
2008,06,11,08,29,5.70
2008,06,11,08,30,5.70
2008,06,11,08,31,5.70
2008,06,11,08,32,3.50
2008,06,11,08,33,1.60
2008,06,11,08,34,4.30
2008,06,11,08,35,2.80
2008,06,11,08,36,1.50
2008,06,11,08,37,2.40
2008,06,11,08,38,3.20
2008,06,11,08,39,6.30
2008,06,11,08,40,7.00
2008,06,11,08,41,3.60
2008,06,11,08,42,4.00
2008,06,11,08,43,3.90
2008,06,11,08,44,3.90
2008,06,11,08,45,0.60
2008,06,11,08,46,1.00
2008,06,11,08,47,1.60
2008,06,11,08,48,0.90
2008,06,11,08,49,1.50
2008,06,11,08,50,1.40
2008,06,11,08,51,3.40
2008,06,11,08,52,2.20
2008,06,11,08,53,4.70
2008,06,11,08,54,4.40
2008,06,11,08,55,5.10
2008,06,11,08,56,2.80
2008,06,11,08,57,2.50
2008,06,11,08,58,6.40
2008,06,11,08,59,1.40
2008,06,11,09,00,2.70
2008,06,11,09,01,1.20
2008,06,11,09,02,0.90
2008,06,11,09,03,1.80
2008,06,11,09,04,1.10
2008,06,11,09,05,0.30
2008,06,11,09,06,0.00
2008,06,11,09,07,0.00
2008,06,11,09,08,2.90
2008,06,11,09,09,1.10
2008,06,11,09,10,0.80
2008,06,11,09,11,1.10
2008,06,11,09,12,0.90
2008,06,11,09,13,1.10
2008,06,11,09,14,0.60
2008,06,11,09,15,1.50
2008,06,11,09,16,0.60
2008,06,11,09,17,0.00
2008,06,11,09,18,0.40
2008,06,11,09,19,0.00
2008,06,11,09,20,0.70
2008,06,11,09,21,0.30
2008,06,11,09,22,0.50
2008,06,11,09,23,1.00
2008,06,11,09,24,2.40
2008,06,11,09,25,0.00
2008,06,11,09,26,1.20
2008,06,11,09,27,2.60
2008,06,11,09,28,1.00
2008,06,11,09,29,2.00
2008,06,11,09,30,1.10
2008,06,11,09,31,1.20
2008,06,11,09,32,0.90
2008,06,11,09,33,0.20
2008,06,11,09,34,0.40
2008,06,11,09,35,0.20
2008,06,11,09,36,1.90
2008,06,11,09,37,1.80
2008,06,11,09,38,0.40
2008,06,11,09,39,0.00
2008,06,11,09,40,1.80
2008,06,11,09,41,0.00
2008,06,11,09,42,0.00
2008,06,11,09,43,0.00
2008,06,11,09,44,0.00
2008,06,11,09,45,0.00
2008,06,11,09,46,1.90
2008,06,11,09,47,0.00
2008,06,11,09,48,0.00
2008,06,11,09,49,1.20
2008,06,11,09,50,0.50
2008,06,11,09,51,1.30
2008,06,11,09,52,0.00
2008,06,11,09,53,0.20
2008,06,11,09,54,2.00
2008,06,11,09,55,0.20
2008,06,11,09,56,0.10
2008,06,11,09,57,0.00
2008,06,11,09,58,0.50
2008,06,11,09,59,0.00
2008,06,11,10,00,0.50
2008,06,11,10,01,0.10
2008,06,11,10,02,0.80
2008,06,11,10,03,0.30
2008,06,11,10,04,0.00
2008,06,11,10,05,0.00
2008,06,11,10,06,0.00
2008,06,11,10,07,2.70
2008,06,11,10,08,0.10
2008,06,11,10,09,0.00
2008,06,11,10,10,0.00
2008,06,11,10,11,1.80
2008,06,11,10,12,3.10
2008,06,11,10,13,1.50
2008,06,11,10,14,1.30
2008,06,11,10,15,1.60
2008,06,11,10,16,0.70
2008,06,11,10,17,1.40
2008,06,11,10,18,2.90
2008,06,11,10,19,2.00
2008,06,11,10,20,3.00
2008,06,11,10,21,0.50
2008,06,11,10,22,0.50
2008,06,11,10,23,3.00
2008,06,11,10,24,4.70
2008,06,11,10,25,4.60
2008,06,11,10,26,0.40
2008,06,11,10,27,2.90
2008,06,11,10,28,5.10
2008,06,11,10,29,4.90
2008,06,11,10,30,2.10
2008,06,11,10,31,4.30
2008,06,11,10,32,2.80
2008,06,11,10,33,1.60
2008,06,11,10,34,0.90
2008,06,11,10,35,0.70
2008,06,11,10,36,2.60
2008,06,11,10,37,1.30
2008,06,11,10,38,2.50
2008,06,11,10,39,3.10
2008,06,11,10,40,0.40
2008,06,11,10,41,4.00
2008,06,11,10,42,4.10
2008,06,11,10,43,2.60
2008,06,11,10,44,3.40
2008,06,11,10,45,2.20
2008,06,11,10,46,0.40
2008,06,11,10,47,1.50
2008,06,11,10,48,2.30
2008,06,11,10,49,1.80
2008,06,11,10,50,2.30
2008,06,11,10,51,1.00
2008,06,11,10,52,0.00
2008,06,11,10,53,2.70
2008,06,11,10,54,2.70
2008,06,11,10,55,0.80
2008,06,11,10,56,0.30
2008,06,11,10,57,1.70
2008,06,11,10,58,0.20
2008,06,11,10,59,0.50
2008,06,11,11,00,0.80
2008,06,11,11,01,2.10
2008,06,11,11,02,4.40
2008,06,11,11,03,1.90
2008,06,11,11,04,0.90
2008,06,11,11,05,0.00
2008,06,11,11,06,0.00
2008,06,11,11,07,0.00
2008,06,11,11,08,0.00
2008,06,11,11,09,0.40
2008,06,11,11,10,0.70
2008,06,11,11,11,0.30
2008,06,11,11,12,0.10
2008,06,11,11,13,0.90
2008,06,11,11,14,1.50
2008,06,11,11,15,2.00
2008,06,11,11,16,0.30
2008,06,11,11,17,0.00
2008,06,11,11,18,0.10
2008,06,11,11,19,0.30
2008,06,11,11,20,0.40
2008,06,11,11,21,2.40
2008,06,11,11,22,1.80
2008,06,11,11,23,2.30
2008,06,11,11,24,3.20
2008,06,11,11,25,0.80
2008,06,11,11,26,0.20
2008,06,11,11,27,2.60
2008,06,11,11,28,0.30
2008,06,11,11,29,0.00
2008,06,11,11,30,0.10
2008,06,11,11,31,1.60
2008,06,11,11,32,1.00
2008,06,11,11,33,0.80
2008,06,11,11,34,0.00
2008,06,11,11,35,4.20
2008,06,11,11,36,2.40
2008,06,11,11,37,0.80
2008,06,11,11,38,1.10
2008,06,11,11,39,0.20
2008,06,11,11,40,0.90
2008,06,11,11,41,3.80
2008,06,11,11,42,4.30
2008,06,11,11,43,4.20
2008,06,11,11,44,0.90
2008,06,11,11,45,0.10
2008,06,11,11,46,1.00
2008,06,11,11,47,1.10
2008,06,11,11,48,0.00
2008,06,11,11,49,0.00
2008,06,11,11,50,0.00
2008,06,11,11,51,0.00
2008,06,11,11,52,0.00
2008,06,11,11,53,0.00
2008,06,11,11,54,0.00
2008,06,11,11,55,0.00
2008,06,11,11,56,0.00
2008,06,11,11,57,1.00
2008,06,11,11,58,1.20
2008,06,11,11,59,0.90
2008,06,11,12,00,0.60
2008,06,11,12,01,0.40
2008,06,11,12,02,0.10
2008,06,11,12,03,0.00
2008,06,11,12,04,0.00
2008,06,11,12,05,0.00
2008,06,11,12,06,0.10
2008,06,11,12,07,0.00
2008,06,11,12,08,0.00
2008,06,11,12,09,0.00
2008,06,11,12,10,0.00
2008,06,11,12,11,0.20
2008,06,11,12,12,0.00
2008,06,11,12,13,0.00
2008,06,11,12,14,2.10
2008,06,11,12,15,3.20
2008,06,11,12,16,2.30
2008,06,11,12,17,2.60
2008,06,11,12,18,4.80
2008,06,11,12,19,1.70
2008,06,11,12,20,4.00
2008,06,11,12,21,3.10
2008,06,11,12,22,2.70
2008,06,11,12,23,0.80
2008,06,11,12,24,0.60
2008,06,11,12,25,2.00
2008,06,11,12,26,1.90
2008,06,11,12,27,0.90
2008,06,11,12,28,0.00
2008,06,11,12,29,0.10
2008,06,11,12,30,1.30
2008,06,11,12,31,1.50
2008,06,11,12,32,0.20
2008,06,11,12,33,0.50
2008,06,11,12,34,0.00
2008,06,11,12,35,0.30
2008,06,11,12,36,0.00
2008,06,11,12,37,0.00
2008,06,11,12,38,0.00
2008,06,11,12,39,0.00
2008,06,11,12,40,0.00
2008,06,11,12,41,0.20
2008,06,11,12,42,2.80
2008,06,11,12,43,2.20
2008,06,11,12,44,0.10
2008,06,11,12,45,0.20
2008,06,11,12,46,0.10
2008,06,11,12,47,1.00
2008,06,11,12,48,0.50
2008,06,11,12,49,2.10
2008,06,11,12,50,3.70
2008,06,11,12,51,2.10
2008,06,11,12,52,0.60
2008,06,11,12,53,0.50
2008,06,11,12,54,0.90
2008,06,11,12,55,3.30
2008,06,11,12,56,2.30
2008,06,11,12,57,1.60
2008,06,11,12,58,1.30
2008,06,11,12,59,1.40
2008,06,11,13,00,0.30
2008,06,11,13,01,2.70
2008,06,11,13,02,2.40
2008,06,11,13,03,4.20
2008,06,11,13,04,9.40
2008,06,11,13,05,11.40
2008,06,11,13,06,8.90
2008,06,11,13,07,5.80
2008,06,11,13,08,6.10
2008,06,11,13,09,4.80
2008,06,11,13,10,6.30
2008,06,11,13,11,7.00
2008,06,11,13,12,4.70
2008,06,11,13,13,5.90
2008,06,11,13,14,8.30
2008,06,11,13,15,6.80
2008,06,11,13,16,8.00
2008,06,11,13,17,10.70
2008,06,11,13,18,6.40
2008,06,11,13,19,6.20
2008,06,11,13,20,8.60
2008,06,11,13,21,8.40
2008,06,11,13,22,4.70
2008,06,11,13,23,6.20
2008,06,11,13,24,5.40
2008,06,11,13,25,5.70
2008,06,11,13,26,7.20
2008,06,11,13,27,6.20
2008,06,11,13,28,8.80
2008,06,11,13,29,7.60
2008,06,11,13,30,6.00
2008,06,11,13,31,3.40
2008,06,11,13,32,3.80
2008,06,11,13,33,4.60
2008,06,11,13,34,6.50
2008,06,11,13,35,6.60
2008,06,11,13,36,3.00
2008,06,11,13,37,9.00
2008,06,11,13,38,12.10
2008,06,11,13,39,7.00
2008,06,11,13,40,6.50
2008,06,11,13,41,9.80
2008,06,11,13,42,7.20
2008,06,11,13,43,8.30
2008,06,11,13,44,6.50
2008,06,11,13,45,8.70
2008,06,11,13,46,9.80
2008,06,11,13,47,8.00
2008,06,11,13,48,5.20
2008,06,11,13,49,3.70
2008,06,11,13,50,4.10
2008,06,11,13,51,1.00
2008,06,11,13,52,1.30
2008,06,11,13,53,4.80
2008,06,11,13,54,4.50
2008,06,11,13,55,7.50
2008,06,11,13,56,8.10
2008,06,11,13,57,8.10
2008,06,11,13,58,4.10
2008,06,11,13,59,2.80
2008,06,11,14,00,4.80
2008,06,11,14,01,6.40
2008,06,11,14,02,7.50
2008,06,11,14,03,4.70
2008,06,11,14,04,2.10
2008,06,11,14,05,3.30
2008,06,11,14,06,1.40
2008,06,11,14,07,7.40
2008,06,11,14,08,10.80
2008,06,11,14,09,6.60
2008,06,11,14,10,5.40
2008,06,11,14,11,1.80
2008,06,11,14,12,2.20
2008,06,11,14,13,1.30
2008,06,11,14,14,4.60
2008,06,11,14,15,2.60
2008,06,11,14,16,2.50
2008,06,11,14,17,3.00
2008,06,11,14,18,2.80
2008,06,11,14,19,5.70
2008,06,11,14,20,3.60
2008,06,11,14,21,1.10
2008,06,11,14,22,1.50
2008,06,11,14,23,0.80
2008,06,11,14,24,3.10
2008,06,11,14,25,2.70
2008,06,11,14,26,0.20
2008,06,11,14,27,3.30
2008,06,11,14,28,1.70
2008,06,11,14,29,2.40
2008,06,11,14,30,3.40
2008,06,11,14,31,4.00
2008,06,11,14,32,5.40
2008,06,11,14,33,4.70
2008,06,11,14,34,2.70
2008,06,11,14,35,0.30
2008,06,11,14,36,3.00
2008,06,11,14,37,1.90
2008,06,11,14,38,1.20
2008,06,11,14,39,2.40
2008,06,11,14,40,2.40
2008,06,11,14,41,1.50
2008,06,11,14,42,2.60
2008,06,11,14,43,0.90
2008,06,11,14,44,1.70
2008,06,11,14,45,2.10
2008,06,11,14,46,5.10
2008,06,11,14,47,0.90
2008,06,11,14,48,1.90
2008,06,11,14,49,4.00
2008,06,11,14,50,0.80
2008,06,11,14,51,3.60
2008,06,11,14,52,3.90
2008,06,11,14,53,2.80
2008,06,11,14,54,0.00
2008,06,11,14,55,0.90
2008,06,11,14,56,0.40
2008,06,11,14,57,5.50
2008,06,11,14,58,6.90
2008,06,11,14,59,6.40
2008,06,11,15,00,2.80
2008,06,11,15,01,0.00
2008,06,11,15,02,0.00
2008,06,11,15,03,0.00
2008,06,11,15,04,2.10
2008,06,11,15,05,8.70
2008,06,11,15,06,9.80
2008,06,11,15,07,5.90
2008,06,11,15,08,4.20
2008,06,11,15,09,2.40
2008,06,11,15,10,5.80
2008,06,11,15,11,1.30
2008,06,11,15,12,7.20
2008,06,11,15,13,5.00
2008,06,11,15,14,5.60
2008,06,11,15,15,5.40
2008,06,11,15,16,4.40
2008,06,11,15,17,5.50
2008,06,11,15,18,6.10
2008,06,11,15,19,1.00
2008,06,11,15,20,0.90
2008,06,11,15,21,3.30
2008,06,11,15,22,6.70
2008,06,11,15,23,3.30
2008,06,11,15,24,3.20
2008,06,11,15,25,4.30
2008,06,11,15,26,1.40
2008,06,11,15,27,3.80
2008,06,11,15,28,4.30
2008,06,11,15,29,4.90
2008,06,11,15,30,0.40
2008,06,11,15,31,0.00
2008,06,11,15,32,3.30
2008,06,11,15,33,3.90
2008,06,11,15,34,2.10
2008,06,11,15,35,0.20
2008,06,11,15,36,1.60
2008,06,11,15,37,2.00
2008,06,11,15,38,2.50
2008,06,11,15,39,4.20
2008,06,11,15,40,4.80
2008,06,11,15,41,7.00
2008,06,11,15,42,5.90
2008,06,11,15,43,6.40
2008,06,11,15,44,2.80
2008,06,11,15,45,6.10
2008,06,11,15,46,3.20
2008,06,11,15,47,3.40
2008,06,11,15,48,4.20
2008,06,11,15,49,1.50
2008,06,11,15,50,4.30
2008,06,11,15,51,4.50
2008,06,11,15,52,7.40
2008,06,11,15,53,4.10
2008,06,11,15,54,2.10
2008,06,11,15,55,1.00
2008,06,11,15,56,4.30
2008,06,11,15,57,7.70
2008,06,11,15,58,4.40
2008,06,11,15,59,4.60
2008,06,11,16,00,6.20
2008,06,11,16,01,4.00
2008,06,11,16,02,5.00
2008,06,11,16,03,6.90
2008,06,11,16,04,3.20
2008,06,11,16,05,2.90
2008,06,11,16,06,4.50
2008,06,11,16,07,5.40
2008,06,11,16,08,8.50
2008,06,11,16,09,8.10
2008,06,11,16,10,13.10
2008,06,11,16,11,10.40
2008,06,11,16,12,8.80
2008,06,11,16,13,13.50
2008,06,11,16,14,11.40
2008,06,11,16,15,5.50
2008,06,11,16,16,9.30
2008,06,11,16,17,7.70
2008,06,11,16,18,11.60
2008,06,11,16,19,6.60
2008,06,11,16,20,12.20
2008,06,11,16,21,9.70
2008,06,11,16,22,11.10
2008,06,11,16,23,9.80
2008,06,11,16,24,6.90
2008,06,11,16,25,9.50
2008,06,11,16,26,10.10
2008,06,11,16,27,9.20
2008,06,11,16,28,5.40
2008,06,11,16,29,6.80
2008,06,11,16,30,3.50
2008,06,11,16,31,6.10
2008,06,11,16,32,11.00
2008,06,11,16,33,6.20
2008,06,11,16,34,4.10
2008,06,11,16,35,11.90
2008,06,11,16,36,5.70
2008,06,11,16,37,4.70
2008,06,11,16,38,5.40
2008,06,11,16,39,5.60
2008,06,11,16,40,7.30
2008,06,11,16,41,9.30
2008,06,11,16,42,10.50
2008,06,11,16,43,7.10
2008,06,11,16,44,12.30
2008,06,11,16,45,10.50
2008,06,11,16,46,8.20
2008,06,11,16,47,7.70
2008,06,11,16,48,11.10
2008,06,11,16,49,5.80
2008,06,11,16,50,6.90
2008,06,11,16,51,6.40
2008,06,11,16,52,6.90
2008,06,11,16,53,3.20
2008,06,11,16,54,9.70
2008,06,11,16,55,6.50
2008,06,11,16,56,4.60
2008,06,11,16,57,8.20
2008,06,11,16,58,6.00
2008,06,11,16,59,6.90
2008,06,11,17,00,8.50
2008,06,11,17,01,7.00
2008,06,11,17,02,9.80
2008,06,11,17,03,8.90
2008,06,11,17,04,12.70
2008,06,11,17,05,12.90
2008,06,11,17,06,9.30
2008,06,11,17,07,8.00
2008,06,11,17,08,4.80
2008,06,11,17,09,8.00
2008,06,11,17,10,5.30
2008,06,11,17,11,6.80
2008,06,11,17,12,5.60
2008,06,11,17,13,10.90
2008,06,11,17,14,15.20
2008,06,11,17,15,17.40
2008,06,11,17,16,9.80
2008,06,11,17,17,8.80
2008,06,11,17,18,9.60
2008,06,11,17,19,9.60
2008,06,11,17,20,7.90
2008,06,11,17,21,4.90
2008,06,11,17,22,8.50
2008,06,11,17,23,8.10
2008,06,11,17,24,8.60
2008,06,11,17,25,10.90
2008,06,11,17,26,8.90
2008,06,11,17,27,8.20
2008,06,11,17,28,8.50
2008,06,11,17,29,9.00
2008,06,11,17,30,9.50
2008,06,11,17,31,8.00
2008,06,11,17,32,7.70
2008,06,11,17,33,5.50
2008,06,11,17,34,5.80
2008,06,11,17,35,6.40
2008,06,11,17,36,11.90
2008,06,11,17,37,8.40
2008,06,11,17,38,6.30
2008,06,11,17,39,8.10
2008,06,11,17,40,10.80
2008,06,11,17,41,9.50
2008,06,11,17,42,9.30
2008,06,11,17,43,10.90
2008,06,11,17,44,7.90
2008,06,11,17,45,7.20
2008,06,11,17,46,6.50
2008,06,11,17,47,7.40
2008,06,11,17,48,6.30
2008,06,11,17,49,5.20
2008,06,11,17,50,5.50
2008,06,11,17,51,9.60
2008,06,11,17,52,14.30
2008,06,11,17,53,15.70
2008,06,11,17,54,16.10
2008,06,11,17,55,11.80
2008,06,11,17,56,11.70
2008,06,11,17,57,8.00
2008,06,11,17,58,6.40
2008,06,11,17,59,4.50
2008,06,11,18,00,6.20
2008,06,11,18,01,4.60
2008,06,11,18,02,4.20
2008,06,11,18,03,4.10
2008,06,11,18,04,3.80
2008,06,11,18,05,5.60